When you browse on this site, cookies collect data to enhance your experience and personalize the content and advertising you see.
Visit our Privacy Policy to learn more. By continuing to use the site, you agree to this use of cookies and data.
  • en Suisse
  • Liste des pays
  • À 7 jours
  • Température de l'eau
  • Carte météo
  • Widgets météo
  • user-avatar
    Se connecter

    Météo par heure à Fateevo

    Ce jour, 3 Juin, Mercredi

    Heure Température Précipitation Vent Pression Humidité
    00:00 +13°C° 1 mm 4 m/s 740 mmHg 97%
    01:00 +13°C° 2.1 mm 5 m/s 739 mmHg 97%
    02:00 +13°C° 2.1 mm 5 m/s 739 mmHg 97%
    03:00 +13°C° 0 mm 4 m/s 739 mmHg 97%
    04:00 +13°C° 0.7 mm 4 m/s 739 mmHg 97%
    05:00 +13°C° 0.7 mm 4 m/s 739 mmHg 97%
    06:00 +13°C° 0.7 mm 5 m/s 739 mmHg 97%
    07:00 +13°C° 0.7 mm 4 m/s 739 mmHg 97%
    08:00 +13°C° 0.7 mm 4 m/s 739 mmHg 97%
    09:00 +12°C° 0 mm 4 m/s 739 mmHg 96%
    10:00 +13°C° 0.5 mm 4 m/s 739 mmHg 95%
    11:00 +14°C° 0.5 mm 3 m/s 739 mmHg 94%
    12:00 +14°C° 0.5 mm 3 m/s 738 mmHg 93%
    13:00 +16°C° 0.6 mm 3 m/s 738 mmHg 91%
    14:00 +17°C° 0.6 mm 3 m/s 738 mmHg 88%
    15:00 +18°C° 0.6 mm 3 m/s 738 mmHg 86%
    16:00 +17°C° 1.9 mm 4 m/s 738 mmHg 88%
    17:00 +16°C° 1.9 mm 5 m/s 737 mmHg 91%
    18:00 +15°C° 1.9 mm 6 m/s 737 mmHg 93%
    19:00 +14°C° 2.6 mm 4 m/s 736 mmHg 95%
    20:00 +14°C° 2.6 mm 3 m/s 736 mmHg 96%
    21:00 +14°C° 2.6 mm 1 m/s 735 mmHg 98%
    22:00 +14°C° 1.9 mm 2 m/s 735 mmHg 97%
    23:00 +14°C° 1.9 mm 2 m/s 734 mmHg 97%

    Demain, 4 Juin, Jeudi

    Heure Température Précipitation Vent Pression Humidité
    00:00 +13°C° 1.9 mm 3 m/s 733 mmHg 97%
    01:00 +12°C° 0.1 mm 3 m/s 734 mmHg 97%
    02:00 +12°C° 0.1 mm 3 m/s 734 mmHg 97%
    03:00 +11°C° 0.1 mm 3 m/s 734 mmHg 97%
    04:00 +11°C° 0 mm 3 m/s 734 mmHg 97%
    05:00 +11°C° 0 mm 3 m/s 734 mmHg 96%
    06:00 +12°C° 0 mm 3 m/s 735 mmHg 96%
    07:00 +12°C° 0 mm 3 m/s 735 mmHg 94%
    08:00 +13°C° 0 mm 3 m/s 735 mmHg 93%
    09:00 +14°C° 0 mm 3 m/s 736 mmHg 91%
    10:00 +16°C° 0.2 mm 3 m/s 736 mmHg 85%
    11:00 +18°C° 0.2 mm 3 m/s 736 mmHg 80%
    12:00 +19°C° 0.2 mm 3 m/s 736 mmHg 74%
    13:00 +19°C° 1.4 mm 4 m/s 736 mmHg 74%
    14:00 +19°C° 1.4 mm 5 m/s 736 mmHg 75%
    15:00 +19°C° 1.4 mm 6 m/s 736 mmHg 75%
    16:00 +17°C° 0.8 mm 6 m/s 736 mmHg 77%
    17:00 +17°C° 0.8 mm 5 m/s 736 mmHg 78%
    18:00 +16°C° 0.8 mm 5 m/s 737 mmHg 80%
    19:00 +15°C° 0 mm 5 m/s 737 mmHg 83%
    20:00 +14°C° 0 mm 4 m/s 737 mmHg 87%
    21:00 +12°C° 0 mm 3 m/s 738 mmHg 90%
    22:00 +12°C° 0 mm 3 m/s 738 mmHg 92%
    23:00 +11°C° 0 mm 3 m/s 739 mmHg 93%

    Après-demain, 5 Juin, Vendredi

    Heure Température Précipitation Vent Pression Humidité
    00:00 +11°C° 0 mm 3 m/s 739 mmHg 94%
    01:00 +11°C° 0 mm 3 m/s 739 mmHg 94%
    02:00 +11°C° 0 mm 3 m/s 739 mmHg 94%
    03:00 +11°C° 0 mm 3 m/s 739 mmHg 94%
    04:00 +11°C° 0 mm 4 m/s 739 mmHg 93%
    05:00 +11°C° 0 mm 4 m/s 739 mmHg 92%
    06:00 +12°C° 0 mm 5 m/s 739 mmHg 91%
    07:00 +13°C° 0 mm 5 m/s 740 mmHg 87%
    08:00 +15°C° 0 mm 6 m/s 740 mmHg 82%
    09:00 +16°C° 0 mm 6 m/s 740 mmHg 77%
    10:00 +17°C° 0.1 mm 6 m/s 740 mmHg 75%
    11:00 +18°C° 0.1 mm 7 m/s 740 mmHg 72%
    12:00 +18°C° 0.1 mm 7 m/s 740 mmHg 69%
    13:00 +17°C° 0.7 mm 7 m/s 740 mmHg 73%
    14:00 +17°C° 0.7 mm 7 m/s 740 mmHg 77%
    15:00 +16°C° 0.7 mm 7 m/s 740 mmHg 81%
    16:00 +15°C° 0.1 mm 7 m/s 740 mmHg 81%
    17:00 +15°C° 0.1 mm 6 m/s 740 mmHg 82%
    18:00 +15°C° 0.1 mm 6 m/s 740 mmHg 82%
    19:00 +14°C° 0.4 mm 5 m/s 740 mmHg 86%
    20:00 +14°C° 0.4 mm 5 m/s 740 mmHg 89%
    21:00 +13°C° 0.4 mm 4 m/s 740 mmHg 93%
    22:00 +13°C° 0.5 mm 4 m/s 740 mmHg 94%
    23:00 +12°C° 0.5 mm 4 m/s 740 mmHg 95%

    6 Juin, Samedi

    Heure Température Précipitation Vent Pression Humidité
    00:00 +12°C° 0.5 mm 4 m/s 740 mmHg 96%
    01:00 +12°C° 0.1 mm 4 m/s 740 mmHg 96%
    02:00 +12°C° 0.1 mm 4 m/s 740 mmHg 97%
    03:00 +13°C° 0.1 mm 4 m/s 741 mmHg 97%
    04:00 +13°C° 0 mm 4 m/s 741 mmHg 96%
    05:00 +14°C° 0 mm 4 m/s 741 mmHg 96%
    06:00 +14°C° 0 mm 3 m/s 741 mmHg 96%
    07:00 +15°C° 0 mm 4 m/s 741 mmHg 94%
    08:00 +17°C° 0 mm 4 m/s 741 mmHg 93%
    09:00 +17°C° 0 mm 4 m/s 742 mmHg 92%
    10:00 +19°C° 0.1 mm 4 m/s 742 mmHg 88%
    11:00 +20°C° 0.1 mm 4 m/s 742 mmHg 85%
    12:00 +21°C° 0.1 mm 4 m/s 742 mmHg 81%
    13:00 +22°C° 0.6 mm 4 m/s 742 mmHg 79%
    14:00 +23°C° 0.6 mm 5 m/s 742 mmHg 77%
    15:00 +23°C° 0.6 mm 5 m/s 742 mmHg 76%
    16:00 +23°C° 1.1 mm 4 m/s 742 mmHg 78%
    17:00 +23°C° 1.1 mm 4 m/s 742 mmHg 81%
    18:00 +22°C° 1.1 mm 3 m/s 742 mmHg 83%
    19:00 +21°C° 0.6 mm 3 m/s 742 mmHg 85%
    20:00 +20°C° 0.6 mm 4 m/s 743 mmHg 87%
    21:00 +19°C° 0.6 mm 4 m/s 743 mmHg 89%
    22:00 +19°C° 0.8 mm 3 m/s 743 mmHg 91%
    23:00 +18°C° 0.8 mm 3 m/s 743 mmHg 93%

    7 Juin, Dimanche

    Heure Température Précipitation Vent Pression Humidité
    00:00 +18°C° 0.8 mm 2 m/s 744 mmHg 95%
    01:00 +18°C° 0 mm 2 m/s 744 mmHg 95%
    02:00 +18°C° 0 mm 2 m/s 744 mmHg 96%
    03:00 +17°C° 0 mm 3 m/s 744 mmHg 96%
    04:00 +18°C° 0 mm 3 m/s 745 mmHg 96%
    05:00 +18°C° 0 mm 3 m/s 745 mmHg 95%
    06:00 +18°C° 0 mm 3 m/s 745 mmHg 95%
    07:00 +19°C° 0 mm 3 m/s 745 mmHg 93%
    08:00 +20°C° 0 mm 3 m/s 746 mmHg 90%
    09:00 +21°C° 0 mm 3 m/s 746 mmHg 88%
    10:00 +22°C° 0.1 mm 3 m/s 747 mmHg 83%
    11:00 +25°C° 0.1 mm 3 m/s 747 mmHg 77%
    12:00 +26°C° 0.1 mm 3 m/s 747 mmHg 72%
    13:00 +26°C° 0.6 mm 3 m/s 747 mmHg 72%
    14:00 +26°C° 0.6 mm 3 m/s 747 mmHg 72%
    15:00 +26°C° 0.6 mm 3 m/s 747 mmHg 71%
    16:00 +26°C° 0.2 mm 3 m/s 747 mmHg 74%
    17:00 +26°C° 0.2 mm 2 m/s 747 mmHg 76%
    18:00 +26°C° 0.2 mm 2 m/s 747 mmHg 78%
    19:00 +24°C° 0 mm 2 m/s 747 mmHg 81%
    20:00 +23°C° 0 mm 2 m/s 747 mmHg 84%
    21:00 +21°C° 0 mm 1 m/s 747 mmHg 87%
    22:00 +21°C° 0 mm 1 m/s 747 mmHg 88%
    23:00 +19°C° 0 mm 2 m/s 748 mmHg 89%

    8 Juin, Lundi

    Heure Température Précipitation Vent Pression Humidité
    00:00 +19°C° 0 mm 2 m/s 748 mmHg 91%
    01:00 +18°C° 0 mm 2 m/s 748 mmHg 91%
    02:00 +18°C° 0 mm 2 m/s 748 mmHg 91%
    03:00 +17°C° 0 mm 2 m/s 748 mmHg 91%
    04:00 +18°C° 0 mm 2 m/s 748 mmHg 90%
    05:00 +18°C° 0 mm 2 m/s 748 mmHg 90%
    06:00 +18°C° 0 mm 2 m/s 748 mmHg 89%
    07:00 +20°C° 0 mm 2 m/s 748 mmHg 86%
    08:00 +23°C° 0 mm 2 m/s 748 mmHg 82%
    09:00 +24°C° 0 mm 2 m/s 748 mmHg 79%
    10:00 +25°C° 0 mm 3 m/s 748 mmHg 75%
    11:00 +26°C° 0 mm 3 m/s 748 mmHg 71%
    12:00 +27°C° 0 mm 3 m/s 748 mmHg 67%
    13:00 +27°C° 0.2 mm 3 m/s 748 mmHg 67%
    14:00 +27°C° 0.2 mm 3 m/s 748 mmHg 66%
    15:00 +28°C° 0.2 mm 3 m/s 748 mmHg 66%
    16:00 +27°C° 0.1 mm 3 m/s 748 mmHg 70%
    17:00 +27°C° 0.1 mm 3 m/s 747 mmHg 74%
    18:00 +27°C° 0.1 mm 2 m/s 747 mmHg 78%
    19:00 +25°C° 0 mm 2 m/s 747 mmHg 80%
    20:00 +24°C° 0 mm 2 m/s 747 mmHg 83%
    21:00 +21°C° 0 mm 2 m/s 747 mmHg 85%
    22:00 +21°C° 0 mm 2 m/s 748 mmHg 87%
    23:00 +20°C° 0 mm 2 m/s 748 mmHg 89%
    Voir plus